[[{"header":{"parameterUnit":"m.s-1","parameterCategory":1,"la1":30.2991,"la2":30.254,"lo1":-89.0895,"lo2":-89.0444,"dy":0.0017,"dx":0.0017,"nx":28,"ny":28,"refTime":"2024-03-01T03:00:00:Z","depth":0,"parameterNumber":2,"parameterNumberName":"U-component_of_WINDS"},"data":[0,0,0,0,0,0,0,0,0,0,0,0,0,0,0,0,0,0,0,0,0,0,0,0,0,0,0,0,0,0,0,0,0,0,0,0,0,0,0,0,0,0,0,0,0,0,0,0,0,0,0,0,0,0,0,0,0,0,-1.8295,-1.8296,0,-1.8387,-1.8388,-1.839,-1.8408,-1.8408,-1.8407,-1.8406,-1.8501,-1.8504,-1.8507,0,0,0,0,0,0,0,0,0,0,0,0,0,-1.8135,-1.8138,-1.8295,-1.8296,-1.8297,-1.8387,-1.8389,-1.839,-1.8409,-1.8408,-1.8407,-1.8406,-1.85,-1.8503,-1.8507,0,0,0,0,0,0,0,0,0,0,0,0,0,-1.8214,-1.8139,-1.8294,-1.8317,-1.832,-1.8387,-1.8389,-1.839,-1.8409,-1.8408,-1.8407,-1.8406,-1.8498,-1.8503,-1.8508,-1.8558,0,0,-1.8522,-1.8524,0,0,0,0,0,0,0,0,-1.8209,-1.8219,-1.8313,-1.8316,-1.8319,-1.8385,-1.8367,-1.8446,-1.8409,-1.8375,-1.8406,-1.8405,-1.8463,-1.8471,-1.849,-1.8563,-1.8567,-1.8523,-1.8526,-1.8528,-1.8529,0,0,0,0,0,0,0,-1.8204,-1.8216,-1.8331,-1.8314,-1.8318,-1.8323,-1.8333,-1.8382,-1.8424,-1.8378,-1.838,-1.839,-1.8465,-1.8486,-1.8493,-1.8568,-1.8522,-1.8527,-1.853,-1.8532,-1.8688,-1.8689,0,0,0,0,0,0,-1.8194,-1.8211,-1.8328,-1.8334,-1.8261,-1.8327,-1.8338,-1.8365,-1.8423,-1.8431,-1.8391,-1.8391,-1.8478,-1.8487,-1.8496,-1.8559,-1.8528,-1.8532,-1.8535,-1.8686,-1.8688,-1.8689,0,0,0,0,0,0,-1.8191,-1.8204,-1.8325,-1.8273,-1.8289,-1.8331,-1.8361,-1.8368,-1.8389,-1.8433,-1.8441,-1.8405,-1.8478,-1.8489,-1.8543,-1.8563,-1.8534,-1.8538,-1.8685,-1.8687,-1.8689,-1.8686,0,0,0,0,0,0,-1.8186,-1.8203,-1.8222,-1.8273,-1.8291,-1.837,-1.8362,-1.837,-1.8397,-1.8397,-1.8448,-1.8456,-1.8478,-1.8536,-1.8548,-1.8569,-1.8542,-1.8683,-1.8686,-1.8688,-1.8684,-1.8687,-1.869,0,0,0,0,0,-1.818,-1.8217,-1.8223,-1.8237,-1.8316,-1.8371,-1.8381,-1.8406,-1.8398,-1.8418,-1.8447,-1.8454,-1.8559,-1.8541,-1.8555,-1.8577,-1.8682,-1.8685,-1.8688,-1.8683,-1.8687,-1.869,0,0,0,0,0,0,-1.8167,-1.8224,-1.8231,-1.8286,-1.8323,-1.8374,-1.8399,-1.8409,-1.8449,-1.8448,-1.8477,-1.8488,-1.854,-1.8564,-1.8543,-1.863,-1.862,-1.8626,-1.8612,-1.8616,-1.8619,-1.8611,-1.8546,0,0,0,0,0,-1.8171,-1.821,-1.8258,-1.8302,-1.832,-1.8357,-1.8381,-1.8397,-1.8437,-1.8453,-1.8486,-1.8524,-1.8566,-1.8592,-1.8633,-1.8689,-1.87,-1.8711,-1.8714,-1.8716,-1.872,-1.8752,-1.8758,-1.8699,-1.8699,-1.8699,0,0,-1.8178,-1.8214,-1.8237,-1.83,-1.8331,-1.8371,-1.837,-1.8412,-1.8442,-1.8459,-1.8511,-1.8537,-1.8582,-1.8637,-1.8663,-1.8659,-1.874,-1.872,-1.8721,-1.8725,-1.8756,-1.8761,-1.8766,-1.8701,-1.87,-1.87,0,0,-1.8212,-1.8244,-1.8284,-1.8315,-1.8362,-1.8386,-1.8396,-1.8445,-1.8463,-1.8517,-1.853,-1.8567,-1.8638,-1.867,-1.8695,-1.8744,-1.8751,-1.8756,-1.8771,-1.8801,-1.8806,-1.881,-1.8827,-1.8833,-1.8761,-1.8761,-1.8761,0,-1.8215,-1.8276,-1.8303,-1.8345,-1.8373,-1.8391,-1.8432,-1.8461,-1.8519,-1.8538,-1.8533,-1.8624,-1.8655,-1.8718,-1.873,-1.875,-1.8762,-1.875,-1.8803,-1.8808,-1.8812,-1.8829,-1.8835,-1.8761,-1.8761,-1.8761,-1.8761,0,-1.8278,-1.832,-1.8347,-1.8403,-1.8433,-1.8475,-1.8508,-1.8537,-1.8551,-1.8576,-1.8631,-1.8669,-1.8719,-1.8735,-1.8749,-1.88,-1.8797,-1.8797,-1.8788,-1.8817,-1.8833,-1.884,-1.8761,-1.8761,-1.8761,-1.8761,0,0,-1.8304,-1.8375,-1.8385,-1.8411,-1.8465,-1.8498,-1.8541,-1.859,-1.8613,-1.8653,-1.869,-1.8751,-1.8752,-1.8781,-1.8799,-1.8826,-1.8862,-1.8824,-1.8825,-1.8829,-1.8921,-1.892,-1.8926,-1.8869,-1.887,-1.8871,-1.8917,0,-1.8344,-1.842,-1.8447,-1.851,-1.855,-1.8569,-1.8606,-1.8644,-1.8669,-1.8707,-1.8735,-1.8777,-1.8776,-1.8794,-1.8822,-1.8852,-1.8881,-1.8849,-1.8903,-1.8904,-1.8889,-1.8935,-1.8933,-1.8975,-1.8924,-1.8925,-1.8926,0,-1.84,-1.8441,-1.8508,-1.8559,-1.8576,-1.8609,-1.8657,-1.8693,-1.8736,-1.8753,-1.8786,-1.8803,-1.8849,-1.8838,-1.8902,-1.888,-1.8904,-1.8922,-1.8925,-1.8929,-1.8916,-1.894,-1.8989,-1.8994,-1.8936,-1.8935,-1.8934,0,-1.8411,-1.8484,-1.8534,-1.8555,-1.8615,-1.8638,-1.8664,-1.8707,-1.8735,-1.8777,-1.8796,-1.8842,-1.8868,-1.8904,-1.8933,-1.8922,-1.8995,-1.8986,-1.9009,-1.9009,-1.9022,-1.9021,-1.9074,-1.904,-1.904,-1.9039,-1.9039,0,-1.8452,-1.8493,-1.854,-1.857,-1.8616,-1.8647,-1.8692,-1.872,-1.8758,-1.8795,-1.8815,-1.8849,-1.8885,-1.8925,-1.8948,-1.8998,-1.9009,-1.9024,-1.9029,-1.9021,-1.9019,-1.9036,-1.9034,-1.9041,-1.9041,-1.904,-1.904,0,-1.8472,-1.8505,-1.8561,-1.8614,-1.8628,-1.866,-1.8705,-1.8736,-1.8763,-1.8809,-1.8822,-1.8864,-1.8911,-1.8944,-1.9005,-1.9021,-1.9074,-1.908,-1.9059,-1.9062,-1.9083,-1.908,-1.9148,-1.9159,-1.9118,-1.9118,-1.9119,0,-1.8495,-1.8527,-1.8584,-1.861,-1.8636,-1.8677,-1.8707,-1.8739,-1.8768,-1.8822,-1.8846,-1.8895,-1.8935,-1.901,-1.9046,-1.9093,-1.9099,-1.912,-1.9106,-1.9098,-1.9099,-1.9096,-1.9099,-1.9121,-1.9122,-1.9122,-1.9122,0,-1.8533,-1.8548,-1.8589,-1.8637,-1.8671,-1.871,-1.8749,-1.8769,-1.8808,-1.8841,-1.8889,-1.8921,-1.8984,-1.9032,-1.9082,-1.911,-1.9123,-1.9127,-1.9134,-1.9126,-1.9112,-1.9119,-1.9064,-1.9124,-1.9124,-1.9124,-1.9124,-1.9124,-1.8555,-1.8584,-1.8629,-1.8674,-1.8707,-1.8744,-1.8775,-1.8807,-1.8848,-1.8901,-1.8918,-1.8969,-1.9013,-1.9083,-1.9111,-1.9151,-1.915,-1.9161,-1.9164,-1.9166,-1.9166,-1.9107,-1.9161,-1.9161,-1.9161,-1.9161,-1.9161,0,-1.8593,-1.8623,-1.8665,-1.8719,-1.8755,-1.8765,-1.8809,-1.8839,-1.8883,-1.8923,-1.8963,-1.902,-1.9067,-1.9108,-1.9157,-1.9181,-1.9189,-1.9193,-1.9191,-1.9197,-1.9164,-1.9152,-1.9187,-1.9187,-1.9187,-1.9187,-1.9187,-1.9187,-1.8617,-1.8667,-1.8688,-1.8755,-1.8785,-1.8835,-1.8859,-1.8893,-1.8926,-1.8988,-1.9027,-1.9054,-1.9095,-1.9148,-1.9192,-1.9203,-1.9219,-1.9223,-1.9235,-1.9203,-1.9199,-1.9197,-1.9185,-1.9226,-1.9226,-1.9264,-1.9265,-1.9265]},{"header":{"parameterUnit":"m.s-1","parameterCategory":1,"la1":30.2991,"la2":30.254,"lo1":-89.0895,"lo2":-89.0444,"dy":0.0017,"dx":0.0017,"nx":28,"ny":28,"refTime":"2024-03-01T03:00:00:Z","depth":0,"parameterNumber":3,"parameterNumberName":"V-component_of_WINDS"},"data":[0,0,0,0,0,0,0,0,0,0,0,0,0,0,0,0,0,0,0,0,0,0,0,0,0,0,0,0,0,0,0,0,0,0,0,0,0,0,0,0,0,0,0,0,0,0,0,0,0,0,0,0,0,0,0,0,0,0,1.1653,1.1654,0,1.1675,1.1675,1.1675,1.1707,1.1708,1.1709,1.1709,1.1729,1.1729,1.1729,0,0,0,0,0,0,0,0,0,0,0,0,0,1.1639,1.1639,1.1653,1.1654,1.1654,1.1675,1.1675,1.1675,1.1707,1.1708,1.1709,1.1709,1.1729,1.1729,1.1729,0,0,0,0,0,0,0,0,0,0,0,0,0,1.1651,1.1639,1.1653,1.1672,1.1674,1.1675,1.1675,1.1676,1.1707,1.1708,1.1709,1.171,1.1729,1.1729,1.1729,1.1712,0,0,1.1729,1.1729,0,0,0,0,0,0,0,0,1.165,1.1651,1.1669,1.1671,1.1673,1.1689,1.1677,1.1688,1.1707,1.1695,1.1709,1.171,1.1715,1.1716,1.1718,1.1713,1.1714,1.1729,1.1729,1.1729,1.1729,0,0,0,0,0,0,0,1.1649,1.1651,1.1662,1.1669,1.1672,1.1679,1.1682,1.1679,1.17,1.1696,1.1698,1.17,1.1716,1.1718,1.1719,1.1714,1.1729,1.1729,1.1729,1.1729,1.1697,1.1696,0,0,0,0,0,0,1.1646,1.165,1.1661,1.1662,1.1664,1.1679,1.1682,1.1683,1.17,1.1703,1.17,1.1702,1.1718,1.1719,1.172,1.1702,1.1729,1.1729,1.1729,1.1697,1.1696,1.1695,0,0,0,0,0,0,1.1645,1.1647,1.166,1.1657,1.1659,1.1678,1.168,1.1683,1.1685,1.1703,1.1706,1.1698,1.1718,1.172,1.1714,1.1703,1.1729,1.1729,1.1698,1.1697,1.1696,1.1664,0,0,0,0,0,0,1.1645,1.1646,1.164,1.1656,1.1659,1.1654,1.1679,1.1683,1.1686,1.1689,1.1702,1.1705,1.1719,1.1714,1.1714,1.1703,1.1729,1.1699,1.1698,1.1696,1.1667,1.1662,1.1659,0,0,0,0,0,1.1644,1.163,1.164,1.1641,1.1652,1.1654,1.1655,1.1672,1.1684,1.1678,1.169,1.1705,1.1704,1.1713,1.1713,1.1702,1.17,1.1698,1.1696,1.1668,1.1663,1.1659,0,0,0,0,0,0,1.161,1.1632,1.1643,1.1634,1.1642,1.1659,1.1652,1.1666,1.167,1.1672,1.1693,1.1696,1.1687,1.1694,1.1704,1.1687,1.1704,1.1702,1.1683,1.1678,1.1674,1.1673,1.1729,0,0,0,0,0,1.1602,1.1602,1.1621,1.161,1.1614,1.1632,1.1633,1.1646,1.1655,1.1658,1.1669,1.1676,1.1678,1.1678,1.1681,1.1668,1.1672,1.1661,1.1657,1.1653,1.1651,1.1646,1.1641,1.1689,1.1689,1.1689,0,0,1.1584,1.1596,1.1595,1.1604,1.1612,1.1611,1.1635,1.1633,1.1632,1.1658,1.1653,1.1661,1.1671,1.1662,1.1659,1.1668,1.1639,1.1651,1.1648,1.1648,1.1643,1.1639,1.1635,1.1688,1.1688,1.1688,0,0,1.1552,1.1561,1.1554,1.1561,1.1573,1.1585,1.1584,1.1599,1.1606,1.1602,1.1621,1.1621,1.1623,1.1629,1.1633,1.1604,1.1618,1.1604,1.1583,1.1578,1.1574,1.1571,1.1561,1.1557,1.1602,1.1602,1.1602,0,1.1528,1.1528,1.1548,1.1545,1.1549,1.1573,1.1566,1.1572,1.1583,1.1585,1.1595,1.1599,1.1607,1.1601,1.1594,1.1596,1.1594,1.1603,1.1573,1.157,1.1567,1.1558,1.1554,1.16,1.1601,1.1601,1.1601,0,1.1499,1.1499,1.1492,1.1503,1.1506,1.1501,1.152,1.152,1.1533,1.1544,1.154,1.1551,1.1557,1.1556,1.1568,1.1551,1.1556,1.1569,1.1587,1.1561,1.1552,1.1549,1.1598,1.1599,1.1599,1.1599,0,0,1.1445,1.1469,1.1466,1.1472,1.1487,1.1487,1.1483,1.149,1.149,1.1497,1.1495,1.1497,1.1509,1.1513,1.1526,1.1521,1.1499,1.1535,1.1536,1.1528,1.1481,1.1472,1.1467,1.1508,1.1508,1.1507,1.1481,0,1.1416,1.1412,1.143,1.142,1.1421,1.1444,1.1441,1.145,1.1461,1.1462,1.1474,1.1475,1.1491,1.1494,1.149,1.1502,1.1489,1.1504,1.1506,1.1506,1.1503,1.1463,1.1452,1.1427,1.1478,1.1477,1.1477,0,1.1381,1.1388,1.1379,1.1396,1.1397,1.1394,1.1401,1.1403,1.1413,1.1422,1.1427,1.1442,1.1439,1.1456,1.1453,1.1463,1.1465,1.1471,1.147,1.1471,1.1489,1.1463,1.1419,1.1415,1.1472,1.1472,1.1472,0,1.1344,1.135,1.1346,1.1351,1.137,1.1367,1.1375,1.1387,1.139,1.1396,1.1398,1.1404,1.1407,1.1411,1.1427,1.1438,1.1422,1.1441,1.1429,1.1429,1.1425,1.1425,1.1381,1.1425,1.1425,1.1425,1.1425,0,1.1309,1.1303,1.133,1.1327,1.1321,1.1342,1.1335,1.1345,1.1355,1.1355,1.1375,1.1374,1.1396,1.1397,1.141,1.1406,1.1407,1.1413,1.1417,1.1412,1.1411,1.1413,1.1415,1.1424,1.1425,1.1425,1.1425,0,1.1266,1.1284,1.1281,1.13,1.1305,1.1299,1.1315,1.1314,1.1326,1.1325,1.1326,1.1345,1.1348,1.1365,1.1372,1.138,1.1372,1.1378,1.1368,1.1371,1.1358,1.1359,1.1314,1.131,1.1357,1.1356,1.1356,0,1.1244,1.124,1.1258,1.126,1.1267,1.1269,1.1273,1.1293,1.1296,1.1308,1.1305,1.131,1.1315,1.1318,1.1332,1.1338,1.1345,1.1329,1.1346,1.1341,1.1345,1.1345,1.1345,1.1325,1.1325,1.1324,1.1324,0,1.1201,1.1211,1.1215,1.1223,1.1227,1.1233,1.1241,1.1241,1.1264,1.1266,1.127,1.1274,1.1281,1.1286,1.1293,1.1301,1.1316,1.1318,1.1316,1.1311,1.1305,1.1309,1.1359,1.1319,1.132,1.132,1.132,1.132,1.1168,1.1166,1.1179,1.1184,1.1192,1.1199,1.1199,1.1212,1.1216,1.1224,1.1235,1.1238,1.1249,1.1261,1.1268,1.127,1.1278,1.1275,1.1274,1.1273,1.127,1.1305,1.1271,1.1271,1.1271,1.1272,1.1272,0,1.1127,1.1137,1.1141,1.1152,1.1156,1.1171,1.1181,1.1183,1.1185,1.1194,1.1199,1.1204,1.1209,1.1223,1.123,1.1228,1.1235,1.1229,1.123,1.1231,1.1262,1.1264,1.1224,1.1224,1.1224,1.1224,1.1224,1.1224,1.1107,1.1104,1.1115,1.1117,1.1127,1.113,1.1134,1.1141,1.1149,1.1153,1.1158,1.1168,1.118,1.1187,1.1192,1.1196,1.1198,1.1189,1.1196,1.1224,1.1229,1.1233,1.1235,1.119,1.1189,1.1165,1.1165,1.1165]}]]